Location: Bourg-d�Oueil
(42.8588°N, 0.4991°E)
Time: 15:22:17
(UTC+00:00)

SL-8 R/B - Pass Details

Date: 16 June 2021
Orbit: 656 x 667 km, 48.4° (Epoch: 01 August)

Event Time Altitude Azimuth Distance (km) Brightness Sun altitude
Rises 21:31:06 0° 294° (WNW) 2,992 8.1 -15.5°
Reaches altitude 10° 21:33:30 10° 298° (WNW) 2,077 7.2 -15.8°
Maximum altitude 21:38:14 60° 18° (NNE) 755 4.1 -16.3°
Enters shadow 21:41:59 16° 96° (E) 1,706 5.5 -16.6°
